St. James, MN

2:54 PM CDT on August 19, 2017 (GMT -0500)
Saint James Municipal

Weather History for KJYG - May, 2013

Change the Weather History Date:

Tuesday, May 7, 2013

  Actual Average Record
Temperature  
Mean Temperature 60 °F -  
Max Temperature 77 °F 68 °F 87 °F (1963)
Min Temperature 44 °F 44 °F 31 °F (1976)
Degree Days  
Heating Degree Days 4    
Growing Degree Days 10 (Base 50)    
Moisture  
Dew Point 44 °F    
Average Humidity 57    
Maximum Humidity 93    
Minimum Humidity 24    
Precipitation  
Precipitation 0.00 in - - ()
Sea Level Pressure  
Sea Level Pressure 30.03 in    
Wind  
Wind Speed 1 mph (South)    
Max Wind Speed 12 mph    
Max Gust Speed 16 mph    
Visibility 9 miles    
Events      
Averages and records for this station are not official NWS values.
T = Trace of Precipitation, MM = Missing Value Source: NWS Daily Summary

Daily Weather History Graph

Daily Weather History Graph

Search for Another Location

Airport or City:

Trip Planner

Search our weather history database for the weather conditions in past years. The results will help you decide how hot, cold, wet, or windy it might be!

Date:

Astronomy

May. 07, 2013 Rise Set
Actual Time 6:01 AM CDT 8:28 PM CDT
Civil Twilight 5:28 AM CDT 9:01 PM CDT
Nautical Twilight 4:48 AM CDT 9:42 PM CDT
Astronomical Twilight 4:03 AM CDT 10:27 PM CDT
Moon 4:40 AM CDT (5/7) 6:25 PM CDT (5/7)
Length of Visible Light 15h 32m
Length of Day
14h 27m
Waning Crescent, 5% of the Moon is Illuminated
May 7
Waning Crescent
May 9
New
May 17
First Quarter
May 24
Full
May 31
Last Quarter

Hourly Weather History & Observations

Time (CDT) Temp. Dew Point Humidity Pressure Visibility Wind Dir Wind Speed Gust Speed Precip Events Conditions
12:15 AM 53.6 °F 48.2 °F 82% 30.07 in 10.0 mi Calm Calm - N/A   Clear
12:35 AM 53.6 °F 48.2 °F 82% 30.07 in 10.0 mi Calm Calm - N/A   Clear
12:54 AM 51.8 °F 46.4 °F 82% 30.07 in 7.0 mi Calm Calm - N/A   Clear
1:15 AM 51.8 °F 46.4 °F 82% 30.07 in 7.0 mi Calm Calm - N/A   Clear
1:35 AM 51.8 °F 46.4 °F 82% 30.07 in 7.0 mi Calm Calm - N/A   Clear
1:54 AM 50.0 °F 46.4 °F 87% 30.07 in 7.0 mi Calm Calm - N/A   Clear
2:15 AM 48.2 °F 44.6 °F 87% 30.07 in 7.0 mi Calm Calm - N/A   Clear
2:35 AM 48.2 °F 44.6 °F 87% 30.07 in 7.0 mi Calm Calm - N/A   Clear
2:54 AM 48.2 °F 44.6 °F 87% 30.06 in 7.0 mi Calm Calm - N/A   Clear
3:15 AM 48.2 °F 44.6 °F 87% 30.06 in 7.0 mi Calm Calm - N/A   Clear
3:34 AM 48.2 °F 44.6 °F 87% 30.06 in 7.0 mi Calm Calm - N/A   Clear
3:55 AM 48.2 °F 44.6 °F 87% 30.06 in 5.0 mi Calm Calm - N/A   Clear
4:15 AM 48.2 °F 46.4 °F 93% 30.06 in 5.0 mi Calm Calm - N/A   Clear
4:35 AM 46.4 °F 44.6 °F 93% 30.06 in 5.0 mi Calm Calm - N/A   Clear
4:55 AM 46.4 °F 42.8 °F 87% 30.06 in 4.0 mi Calm Calm - N/A   Clear
5:15 AM 46.4 °F 44.6 °F 93% 30.06 in 4.0 mi Calm Calm - N/A   Clear
5:35 AM 46.4 °F 44.6 °F 93% 30.06 in 4.0 mi Calm Calm - N/A   Clear
5:55 AM 46.4 °F 44.6 °F 93% 30.07 in 4.0 mi Calm Calm - N/A   Clear
6:15 AM 44.6 °F 42.8 °F 93% 30.07 in 2.5 mi Calm Calm - N/A   Clear
6:35 AM 44.6 °F 42.8 °F 93% 30.08 in 3.0 mi Calm Calm - N/A   Clear
6:55 AM 46.4 °F 44.6 °F 93% 30.08 in 4.0 mi Calm Calm - N/A   Clear
7:15 AM 50.0 °F 46.4 °F 87% 30.09 in 5.0 mi Calm Calm - N/A   Mostly Cloudy
7:35 AM 51.8 °F 46.4 °F 82% 30.09 in 7.0 mi Calm Calm - N/A   Mostly Cloudy
7:55 AM 51.8 °F 46.4 °F 82% 30.09 in 7.0 mi Calm Calm - N/A   Scattered Clouds
8:15 AM 55.4 °F 48.2 °F 77% 30.09 in 7.0 mi Calm Calm - N/A   Clear
8:35 AM 59.0 °F 50.0 °F 72% 30.09 in 10.0 mi Calm Calm - N/A   Clear
8:55 AM 60.8 °F 48.2 °F 63% 30.09 in 10.0 mi Calm Calm - N/A   Clear
9:15 AM 62.6 °F 48.2 °F 59% 30.09 in 10.0 mi Calm Calm - N/A   Clear
9:34 AM 64.4 °F 50.0 °F 59% 30.09 in 10.0 mi Calm Calm - N/A   Clear
9:55 AM 64.4 °F 50.0 °F 59% 30.09 in 10.0 mi Calm Calm - N/A   Clear
10:15 AM 66.2 °F 50.0 °F 56% 30.08 in 10.0 mi Calm Calm - N/A   Clear
10:35 AM 66.2 °F 50.0 °F 56% 30.08 in 10.0 mi Calm Calm - N/A   Clear
10:54 AM 68.0 °F 50.0 °F 52% 30.08 in 10.0 mi Calm Calm - N/A   Clear
11:15 AM 69.8 °F 50.0 °F 49% 30.07 in 10.0 mi SSE 6.9 mph - N/A   Clear
11:35 AM 69.8 °F 50.0 °F 49% 30.07 in 10.0 mi SSE 9.2 mph - N/A   Clear
11:55 AM 71.6 °F 48.2 °F 43% 30.06 in 10.0 mi South 3.5 mph - N/A   Clear
12:14 PM 71.6 °F 44.6 °F 38% 30.06 in 10.0 mi Calm Calm - N/A   Clear
12:35 PM 69.8 °F 46.4 °F 43% 30.05 in 10.0 mi SSW 3.5 mph - N/A   Scattered Clouds
12:55 PM 71.6 °F 44.6 °F 38% 30.05 in 10.0 mi Calm Calm - N/A   Scattered Clouds
1:15 PM 73.4 °F 44.6 °F 36% 30.04 in 10.0 mi Calm Calm - N/A   Scattered Clouds
1:34 PM 71.6 °F 44.6 °F 38% 30.03 in 10.0 mi Calm Calm - N/A   Scattered Clouds
1:55 PM 73.4 °F 42.8 °F 33% 30.03 in 10.0 mi Calm Calm - N/A   Scattered Clouds
2:14 PM 73.4 °F 39.2 °F 29% 30.02 in 10.0 mi Calm Calm - N/A   Clear
2:35 PM 75.2 °F 41.0 °F 29% 30.02 in 10.0 mi South 6.9 mph - N/A   Scattered Clouds
2:54 PM 75.2 °F 39.2 °F 27% 30.01 in 10.0 mi Calm Calm - N/A   Scattered Clouds
3:15 PM 73.4 °F 41.0 °F 31% 30.01 in 10.0 mi Calm Calm - N/A   Scattered Clouds
3:35 PM 75.2 °F 39.2 °F 27% 30.00 in 10.0 mi SSE 10.4 mph - N/A   Scattered Clouds
3:55 PM 75.2 °F 39.2 °F 27% 29.99 in 10.0 mi South 6.9 mph 16.1 mph N/A   Clear
4:14 PM 75.2 °F 39.2 °F 27% 29.99 in 10.0 mi SSW 8.1 mph - N/A   Clear
4:35 PM 75.2 °F 39.2 °F 27% 29.99 in 10.0 mi Calm Calm - N/A   Clear
4:55 PM 77.0 °F 39.2 °F 26% 29.98 in 10.0 mi SW 4.6 mph - N/A   Clear
5:15 PM 77.0 °F 37.4 °F 24% 29.98 in 10.0 mi Calm Calm - N/A   Scattered Clouds
5:35 PM 75.2 °F 35.6 °F 24% 29.97 in 10.0 mi SW 5.8 mph - N/A   Scattered Clouds
5:55 PM 75.2 °F 35.6 °F 24% 29.97 in 10.0 mi South 11.5 mph - N/A   Scattered Clouds
6:14 PM 75.2 °F 35.6 °F 24% 29.97 in 10.0 mi Calm Calm - N/A   Scattered Clouds
6:35 PM 75.2 °F 35.6 °F 24% 29.96 in 10.0 mi SW 5.8 mph - N/A   Scattered Clouds
6:55 PM 75.2 °F 37.4 °F 25% 29.96 in 10.0 mi SSW 9.2 mph - N/A   Scattered Clouds
7:15 PM 73.4 °F 41.0 °F 31% 29.96 in 10.0 mi Calm Calm - N/A   Clear
7:35 PM 73.4 °F 42.8 °F 33% 29.96 in 10.0 mi Calm Calm - N/A   Mostly Cloudy
7:55 PM 71.6 °F 42.8 °F 35% 29.97 in 10.0 mi Calm Calm - N/A   Scattered Clouds
8:15 PM 71.6 °F 39.2 °F 31% 29.97 in 10.0 mi Calm Calm - N/A   Clear
8:35 PM 69.8 °F 41.0 °F 35% 29.97 in 10.0 mi Calm Calm - N/A   Clear
8:55 PM 69.8 °F 42.8 °F 38% 29.97 in 10.0 mi Calm Calm - N/A   Clear
9:15 PM 64.4 °F 44.6 °F 49% 29.97 in 10.0 mi Calm Calm - N/A   Clear
9:35 PM 64.4 °F 46.4 °F 52% 29.98 in 10.0 mi Calm Calm - N/A   Clear
9:55 PM 60.8 °F 46.4 °F 59% 29.98 in 10.0 mi Calm Calm - N/A   Clear
10:15 PM 60.8 °F 46.4 °F 59% 29.98 in 10.0 mi Calm Calm - N/A   Clear
10:35 PM 60.8 °F 46.4 °F 59% 29.98 in 10.0 mi Calm Calm - N/A   Clear
10:55 PM 59.0 °F 46.4 °F 63% 29.98 in 7.0 mi Calm Calm - N/A   Clear
11:15 PM 60.8 °F 46.4 °F 59% 29.99 in 10.0 mi Calm Calm - N/A   Clear
11:35 PM 60.8 °F 44.6 °F 55% 29.98 in 10.0 mi Calm Calm - N/A   Clear
11:55 PM 60.8 °F 44.6 °F 55% 29.98 in 10.0 mi Calm Calm - N/A   Clear